Regional Weather Roundup
Issued by NWS Mt. Holly, NJ

Home | Current Version | Previous Version | Text Only | Print | Product List | Glossary On
Versions: 1 2 3 4 5 6 7 8 9 10 11 12 13 14 15 16 17 18 19 20 21 22 23 24 25 26 27 28 29 30 31 32 33 34 35 36 37 38 39 40 41 42 43 44 45 46 47 48 49 50
000
ASUS41 KPHI 260010
RWRPHI

REGIONAL WEATHER ROUNDUP
NATIONAL WEATHER SERVICE MOUNT HOLLY NJ
700 PM EST TUE NOV 25 2014

NOTE:  "FAIR" INDICATES FEW OR NO CLOUDS BELOW 12,000 FEET WITH NO
SIGNIFICANT WEATHER AND/OR OBSTRUCTIONS TO VISIBILITY.

 * = STATION DOES NOT REPORT PRECIPITATION (E.G. RAIN, SNOW, ETC.)
        OR FOG.

NJZ015>026-260100-
SOUTHERN NEW JERSEY

CITY           SKY/WX    TMP DP  RH WIND       PRES   REMARKS
POMONA         MOCLDY    49  35  58 CALM      30.09R
6HR MIN TEMP:  48; 6HR MAX TEMP:  55;

RIO GRANDE*    CLOUDY    48  37  66 CALM      30.08R
MILLVILLE      CLOUDY    45  37  73 CALM      30.09R
WRIGHTSTOWN    MOCLDY    45  34  63 SW2       30.07R
MOUNT HOLLY    MOCLDY    44  33  65 CALM      30.10R
TRENTON        MOCLDY    48  29  47 W3        30.08R
6HR MIN TEMP:  47; 6HR MAX TEMP:  53;


$$
NJZ001>014-260100-
NORTHERN NEW JERSEY

CITY           SKY/WX    TMP DP  RH WIND       PRES   REMARKS
SUSSEX         PTCLDY    38  29  70 CALM      30.06R
ANDOVER*         N/A     38  34  85 CALM      30.07R
MORRISTOWN     MOCLDY    41  32  70 W5        30.07R
NEWARK         MOCLDY    50  31  48 SW9       30.07R
TETERBORO      MOCLDY    52  28  39 SW8       30.05R
CALDWELL       MOCLDY    45  30  55 CALM      30.07R
SOMERVILLE     MOCLDY    40  32  73 CALM      30.06R
ALLAIRE*       CLOUDY    48  28  46 SW6       30.07R
TOMS RIVER*    CLOUDY    45  37  76 CALM      30.10R

$$
PAZ043-044-047-054-055-060>062-066>071-260100-
EASTERN PENNSYLVANIA

CITY           SKY/WX    TMP DP  RH WIND       PRES   REMARKS
PHILADELPHIA   CLOUDY    50  31  48 SW8       30.11R
6HR MIN TEMP:  49; 6HR MAX TEMP:  55;

NORTH PHILA    MOCLDY    49  30  48 W3        30.11R
BLUE BELL      MOCLDY    43  34  70 CALM      30.08R
DOYLESTOWN     MOCLDY    41  31  67 CALM      30.08R
QUAKERTOWN*    PTCLDY    37  30  75 CALM      30.09R
POTTSTOWN      CLEAR     40  30  67 CALM      30.10R
LANCASTER      PTCLDY    40  29  64 W3        30.09R
COATESVILLE    PTCLDY    45  30  57 CALM      30.09R
READING        CLEAR     46  28  49 CALM      30.08R
6HR MIN TEMP:  44; 6HR MAX TEMP:  55;

ALLENTOWN      CLEAR     41  27  57 SW3       30.08R
6HR MIN TEMP:  39; 6HR MAX TEMP:  54;

MOUNT POCONO   CLEAR     39  26  59 W8        30.04R WCI  33
6HR MIN TEMP:  39; 6HR MAX TEMP:  46;

HAZLETON       CLEAR     39  28  65 W3        30.08R
WILKES BARRE   CLEAR     44  26  49 SW5       30.06R

$$
DEZALL-MDZ008-012-015-019-020-260100-
DELAWARE AND EASTERN MARYLAND

CITY           SKY/WX    TMP DP  RH WIND       PRES   REMARKS
WILMINGTON     MOCLDY    48  32  53 SW3       30.11R
6HR MIN TEMP:  48; 6HR MAX TEMP:  54;

DOVER          CLOUDY    48  38  68 SW2       30.09R
GEORGETOWN     CLOUDY    49  39  68 CALM      30.11R
6HR MIN TEMP:  49; 6HR MAX TEMP:  57;

EASTON         MOCLDY    50  39  66 CALM      30.13R
PATUXENT       CLOUDY    49  39  68 S3        30.12R
OCEAN CITY     CLOUDY    51  38  60 N3        30.11R
WALLOPS ISLAND CLOUDY    50  44  80 E6        30.11R
CAMBRIDGE      CLOUDY    48  41  76 CALM      30.11R
SALISBURY      MOCLDY   N/A N/A N/A CALM      30.10R

$$
PAZ001-021-NYZ056-072-MDZ011-DCZ001-260100-
OTHER NEARBY LOCATIONS

CITY           SKY/WX    TMP DP  RH WIND       PRES   REMARKS
HARRISBURG     MOCLDY    39  29  67 CALM      30.09R
STATE COLLEGE  CLEAR     41  28  60 W7        30.09R
WILLIAMSPORT   CLEAR     41  27  57 CALM      30.07R
BINGHAMTON     CLEAR     40  24  53 SW7       30.02R
NEW YORK CITY  MOCLDY    52  28  39 MISG      30.08R
BALTIMORE      MOCLDY    46  32  58 CALM      30.09R
WASHINGTON DC  CLOUDY    52  33  48 S6        30.11R

$$



USA.gov is the U.S. government's official web portal to all federal, state and local government web resources and services.